Showing default

ORBCOMM FM 9, 25116

Orbit data source: Space-Track

ORBCOMM FM 9, 25116 is a payload satellite owned by Orbcomm (US) in LEO that was launched on Tue, 23 Dec 1997 UTC via a PEGASUS XL/HAPS launch vehicle from the Pegasus Launch, Eastern Range Air Space (ERAS). Payload-class satellites include a variety of spacecraft equipped with specific instruments for various scientific and technological missions. These include communications satellites like Starlink; space stations such as the ISS; scientific satellites like the Hubble; Earth observation satellites from companies like Planet Labs, Umbra, and HawkEye 360; GPS; miniature CubeSats for education and research; and military/defense satellites.

Loading next visibility...
Identifier
25116, 1997-084E
Orbit
LEO
Country
Flag of USUS / ORB
Related business
Manufacturer
OSC-Germantown
Mission
Non-operational Commercial Communications
Bus & Motor
MICROSTAR, Unknown motor
Mass
42 kg wet, 42 kg dry
Launch date (UTC)
1997-12-23 (28 years ago)
Launch vehicle
PEGASUS XL/HAPS
Launch site
Pegasus Launch, Eastern Range Air Space (ERAS)
Object type
Payload
Rocket body
Debris
Shape & HBR
Cyl + 2 Pan, 4.2 m
Radar Cross Section
1.484 m², Medium (>0.1 m² and < 1m²)

Expand to show TLE details & history
Last TLE update: 2 days ago

TLE from 2 days ago
0 ORBCOMM FM 9
1 25116U 97084E   26171.35455546  .00000729  00000-0  24040-3 0  9998
2 25116  45.0157  43.8875 0005223 278.0308  81.9951 14.46551672494768
Epoch: 2026-06-20T08:30Z
TLE epoch observation values (Epoch: 2026-06-20T08:30:33.591Z)
Latitude
-0.00003°
Longitude
7.67713°
Altitude
736.418 km
Speed
7.489 km/s
True Right ascension
02h 55m 32s
True Declination
0° 00' 00"
Sunlit
Object was in daylight at epoch
Visualization orbit readout
Latitude
Unknown
Longitude
Unknown
Altitude
Unknown
Speed
Unknown
Apparent Right ascension
Unknown
Apparent Declination
Unknown
Sunlit
N/A
Visualization observer readout
Local Sidereal Time
00:39:15
Azimuth
Unknown
Elevation
Unknown
Doppler factor
Unknown
Orbital elements
Apogee altitude
742.2 km
Perigee altitude
734.766 km
Semi-major axis
7,116.62 km
Eccentricity
0.00052
Inclination
45.0157°
RAAN
43.8875°
Arg. of periapsis
278.0308°
True anomaly
82.05437°
Mean anomaly
81.9951°
Eccentric anomaly
82.02474°
Mean motion
3.6152 °/min
Orbital period
99.58 mins
BSTAR
0.0002404
Loading maneuver chart data...
Computing Atmospheric mass density...

Documentation

Showing up to 5 results
|